Вернуться в каталог

STARLINK-5350

АктивенСвязьVLEO
NORAD 56419·PAYLOAD·🇺🇸 United States

Запущен May 4, 2023 с Cape Canaveral Space Force Station

Loading…

Ближайшие Пролёты (ближайшие 24 часа)

TLE

СвежийSource: CelesTrak SupGP

Эпоха: Sep 14, 2026, 21:02 UTC

1 56419C 23061AX  26257.87687500  .00001558  00000+0  56423-4 0  2579
2 56419  42.9998 198.7263 0001346 254.1731 222.6191 15.27573386    12

Отслеживайте STARLINK-5350 в реальном времени с AllMySat

Download on the App Store